CST,Max TemperatureF,Mean TemperatureF,Min TemperatureF,Max Dew PointF,MeanDew PointF,Min DewpointF,Max Humidity, Mean Humidity, Min Humidity, Max Sea Level PressureIn, Mean Sea Level PressureIn, Min Sea Level PressureIn, Max VisibilityMiles, Mean VisibilityMiles, Min VisibilityMiles, Max Wind SpeedMPH, Mean Wind SpeedMPH, Max Gust SpeedMPH,PrecipitationIn, CloudCover, Events, WindDirDegrees
2013-12-1,39,36,33,29,29,27,82,73,64,30.16,30.07,29.93,9,7,6,10,5,,0.00,4,,25
2013-12-2,46,39,31,36,32,28,96,83,70,29.91,29.68,29.57,6,5,2,15,6,20,0.00,3,,137
2013-12-3,38,34,30,38,35,29,100,95,89,29.67,29.60,29.54,2,1,0,12,6,16,0.00,6,Fog,41
2013-12-4,38,28,17,37,30,10,100,89,77,29.93,29.63,29.51,10,4,0,29,13,35,0.05,8,Fog-Rain,320
2013-12-5,17,12,6,8,3,-3,74,67,59,30.45,30.23,29.94,10,10,10,28,17,36,0.00,2,,301
2013-12-6,14,7,0,0,-4,-8,79,68,57,30.73,30.57,30.45,10,10,10,18,12,22,0.00,0,,325
2013-12-7,12,4,-4,-1,-5,-10,79,65,50,30.82,30.71,30.58,10,10,9,14,6,17,0.00,2,,22
2013-12-8,19,15,10,14,11,-1,88,73,58,30.52,30.14,30.02,10,3,0,16,8,21,0.08,8,Fog-Snow,107
2013-12-9,14,3,-8,6,-5,-10,87,75,62,30.32,30.24,30.11,10,10,8,22,12,29,0.00,0,,265
2013-12-10,19,11,3,15,8,-2,80,68,56,30.25,30.17,30.01,10,8,1,29,13,36,0.04,5,Snow,222
2013-12-11,19,5,-9,16,1,-13,92,77,62,30.67,30.49,30.20,10,8,1,28,11,34,0.02,3,Snow,317
2013-12-12,26,14,1,16,6,-5,88,75,62,30.51,30.33,30.16,10,10,8,16,6,18,0.00,0,,217
2013-12-13,27,17,7,19,15,6,92,80,68,30.13,30.06,30.01,10,8,5,16,7,22,0.00,3,,58
2013-12-14,22,16,10,17,13,4,92,80,67,30.19,30.15,30.07,10,7,2,18,13,23,T,6,Snow,342
2013-12-15,14,11,8,7,5,3,83,75,67,30.19,30.13,30.06,10,9,5,13,7,16,T,7,,28
2013-12-16,26,19,12,21,14,7,96,85,74,30.13,30.07,29.98,10,7,2,13,8,,0.00,7,,212
2013-12-17,34,23,11,26,18,9,92,72,51,30.22,30.16,30.10,10,9,2,31,15,40,T,2,Snow,282
2013-12-18,45,28,10,33,22,8,92,77,62,30.17,29.88,29.76,10,10,9,20,7,24,0.00,0,,186
2013-12-19,33,28,23,27,25,22,92,84,75,29.90,29.83,29.78,10,7,2,17,11,22,T,4,Rain-Snow,27
2013-12-20,26,23,20,24,20,17,92,88,84,29.94,29.88,29.83,10,7,2,17,11,23,0.00,8,,342
2013-12-21,25,21,17,22,17,14,91,84,77,29.94,29.86,29.77,9,7,2,17,10,23,T,7,Snow,357
2013-12-22,25,15,4,22,12,-2,96,83,70,30.37,30.02,29.77,10,5,0,25,15,34,0.07,7,Fog-Snow,334
2013-12-23,5,-2,-10,-3,-10,-18,79,68,56,30.61,30.53,30.38,10,10,10,21,12,26,0.00,0,,303
2013-12-24,15,-2,-20,12,-6,-24,88,73,57,30.62,30.39,30.21,10,8,2,18,9,23,T,5,Snow,154
2013-12-25,32,23,14,27,19,10,96,82,68,30.28,30.21,30.14,10,8,2,23,11,29,0.00,7,,259
2013-12-26,33,23,13,25,19,11,91,80,69,30.24,30.18,30.11,10,10,9,14,6,15,0.00,4,,224
2013-12-27,41,25,9,30,22,10,96,78,60,30.27,30.17,30.07,10,10,10,18,8,22,0.00,0,,231
2013-12-28,47,35,23,32,27,19,92,73,53,30.07,29.91,29.79,10,10,8,31,11,37,0.00,2,,222
2013-12-29,23,11,-2,16,-2,-14,88,67,46,30.38,30.25,29.99,10,9,4,32,19,40,T,4,Snow,331
2013-12-30,11,3,-5,7,0,-14,91,74,56,30.36,30.21,30.12,10,5,0,13,6,16,0.04,6,Fog-Snow,136
2013-12-31,10,2,-6,3,1,-7,91,82,73,30.35,30.29,30.21,10,10,9,15,8,22,0.00,7,,51